User: anonymous   Login
Location: Unspecified
(0.0000°N, 0.0000°E)
Time: 14:19:42
(UTC+01:00)
Language:

Iridium 33 - Orbit

View from above orbital plane
View from above orbital plane
View from above satellite
View from above satellite

Ground track
Ground track

The orbit data is extracted from the following two-line orbital elements,

1 24946U 97051C   17326.62961491 +.00000113 +00000-0 +33561-4 0  9991
2 24946 086.3918 220.4066 0009944 087.1379 273.0954 14.33579109056725
Epoch (UTC): 22 November 2017 15:06:38
Eccentricity: 0.0009944
inclination: 86.3918°
perigee height: 772 km
apogee height: 787 km
right ascension of ascending node: 220.4066°
argument of perigee: 87.1379°
revolutions per day: 14.33579109
mean anomaly at epoch: 273.0954°
orbit number at epoch: 5672

The dashed part of the orbit path shows where the satellite is in the earth's shadow,  

DLR